Location: Sevilla
(37.3933°N, 5.9839°W)
Time: 04:15:19
(UTC+02:00)

Transit 2A - Pass Details

Date: 30 June 2024
Orbit: 591 x 960 km, 66.7° (Epoch: 15 July)

Event Time Altitude Azimuth Distance (km) Brightness Sun altitude
Rises 15:58:50 0° 229° (SW) 3,023 9.4 65.8°
Reaches altitude 10° 16:01:12 10° 238° (WSW) 2,165 8.9 65.4°
Maximum altitude 16:05:46 37° 306° (NW) 1,164 7.8 64.6°
Drops below altitude 10° 16:10:51 10° 13° (NNE) 2,407 8.5 63.7°
Sets 16:13:37 0° 22° (NNE) 3,407 9.2 63.2°
